Terug naar catalogus

BLOCK DM-SL R/B

ActiefGTO
NORAD 26452·ROCKET BODY· XX

Gelanceerd Jul 28, 2000 vanaf Sea Launch Platform

Loading…

TLE

VerouderendSource: Space-Track

Epoch: Sep 14, 2026, 10:24 UTC

1 26452U 00043B   26257.43379437 -.00000179  00000-0  00000-0 0  9996
2 26452   1.6347  50.5450 6702087 316.7510   9.2171  2.16744906206539

Volg BLOCK DM-SL R/B in realtime met AllMySat

Download on the App Store